Regional Weather Roundup
Issued by NWS Charleston, SC

Current Version | Previous Version | Graphics & Text | Print | Product List | Glossary On
Versions: 1 2 3 4 5 6 7 8 9 10 11 12 13 14 15 16 17 18 19 20 21 22 23 24 25 26 27 28 29 30 31 32 33 34 35 36 37 38 39 40 41 42 43 44 45 46 47 48 49 50
000 ASUS42 KCHS 030212 RWRCHS REGIONAL WEATHER ROUNDUP NATIONAL WEATHER SERVICE CHARLESTON SC 1000 PM EDT TUE JUN 02 2015 NOTE: "FAIR" INDICATES FEW OR NO CLOUDS BELOW 12,000 FEET WITH NO SIGNIFICANT WEATHER AND/OR OBSTRUCTIONS TO VISIBILITY. NOT ALL STATIONS ARE QUALITY CONTROLLED BY THE NATIONAL WEATHER SERVICE. USE DATA WITH CAUTION...ESPECIALLY DEWPOINT OBSERVATIONS. SCZ027-030-031-034>040-042>050-030300- ...SOUTHEAST SOUTH CAROLINA... CITY SKY/WX TMP DP RH WIND PRES REMARKS N CHARLESTON CLOUDY 76 70 82 SW6 29.97R WATERFRONT PAR N/A 78 72 81 S10 29.93R MOUNT PLEASANT LGT RAIN 79 72 78 SW8 29.97R JOHNS ISLAND CLEAR 79 72 78 S10 29.97R PINOPOLIS N/A 75 68 78 CALM 29.89R MONCKS CORNER NOT AVBL SUMMERVILLE FAIR 72 72 100 CALM 29.97R BEAUFORT MCAS CLOUDY 75 72 90 SW5 29.97R BEAUFORT ARPT FAIR 77 72 83 S6 29.96R HILTON HEAD IS N/A N/A N/A N/A MISG N/A WALTERBORO CLOUDY 70 68 94 CALM 29.98R ALLENDALE LGT RAIN 70 70 100 W3 29.98S ...SOUTHERN MIDLANDS AND PEE DEE... CITY SKY/WX TMP DP RH WIND PRES REMARKS GEORGETOWN NOT AVBL KINGSTREE NOT AVBL ORANGEBURG CLOUDY 69 65 86 CALM 29.97R BARNWELL MOCLDY 72 70 94 SE8 29.98S AIKEN FAIR 72 63 73 S10 30.00R MANNING FAIR 70 64 83 CALM 29.98R COLUMBIA TSTM 68 62 81 NE5 30.00R SUMTER CLOUDY 71 64 79 N10 29.98R FLORENCE CLOUDY 73 68 84 E7 29.98S MYRTLE BEACH PTCLDY 79 68 69 S8 29.99S N MYRTLE BEACH MOCLDY 78 70 76 S9 29.98R $$ GAZ063-065-086>088-099>101-113>116-118-119-134>141-150-030300- ...SOUTHEAST GEORGIA... CITY SKY/WX TMP DP RH WIND PRES REMARKS SAVANNAH ARPT CLOUDY 73 70 90 S5 29.97R HUNTER AAF DRIZZLE 75 73 94 SE1 29.93F FORT STEWART CLOUDY 73 67 80 S7 29.95S STATESBORO CLOUDY 72 72 100 N3 29.98R SYLVANIA CLOUDY 73 70 89 N8 30.00R CLAXTON FAIR 70 68 94 CALM 29.97S ...CSRA...CENTRAL AND FAR SOUTHEAST GEORGIA... CITY SKY/WX TMP DP RH WIND PRES REMARKS THOMSON CLOUDY 78 71 80 SE3 30.00R AUGUSTA-BUSH LGT RAIN 70 66 87 S13 29.96R AUGUSTA-DANIEL CLOUDY 73 65 75 S12 29.97R SWAINSBORO FAIR N/A N/A N/A CALM 29.97R THUNDER VIDALIA RAIN 70 68 94 S6 29.97R EASTMAN FAIR 74 70 86 S5 29.98S HAZLEHURST FAIR 72 71 95 S6 29.95F ALMA CLOUDY 70 68 93 S5 29.96F WAYCROSS TSTM 73 73 97 N7 29.99R JESUP FAIR 73 70 88 CALM 29.98R BAXLEY LGT RAIN 72 68 88 S3 29.97F BRUNSWICK CLOUDY 72 68 88 CALM 29.96F SAINT SIMONS NOT AVBL $$ SCZ027-028-034-036>038-045-046-048>050-GAZ119-141-030300- ...LAKE AND SUPPLEMENTAL COASTAL OBSERVATIONS... STATION/POSITION TIME TEMP WIND PRES WAVE SWELL AIR SEA DIR/SP/G HT/PER HT/PER/DIR (UTC) (F) (DEG/KT/KT) (MB) (FT/S) (FT/S/D) UPR LAKE MARION NOT AVBL WINYAH BAY NOT AVBL LAKE MURRAY 0100 73 170/ 2/ 3 1013.9R ACE BASIN NERRS NOT AVBL FORT PULASKI 0100 79 81 180/ 4/ 7 1015.0R SAPELO ISLAND 0100 74 220/ 6 1014.0S $$ ANZ835-935-AMZ111-154-330-350-352-354-370-450-454-472-030300- ...C-MAN AND BUOY OBSERVATIONS... STATION/POSITION TIME TEMP WIND PRES WAVE SWELL AIR SEA DIR/SP/G HT/PER HT/PER/DIR (UTC) (F) (DEG/KT/KT) (MB) (FT/S) (FT/S/D) BUOY 41004 0150 80 81 170/ 10/ 12 1014.2F 2/ 8 2/ 8 BUOY 41008 0150 78 79 170/ 10/ 12 1014.3F 2/ 8 2/100/ 8 FOLLY BEACH CMAN 0200 79 200/ 12/ 14 1015.0R CAPERS NEARSHORE 0108 79 200/ 14/ 16 1014.2F FRIPP NEARSHORE 0100 79 190/ 10/ 14 1014.1R STATION/POSITION TIME TEMP WIND PRES WAVE SWELL AIR SEA DIR/SP/G HT/PER HT/PER/DIR (UTC) (F) (DEG/KT/KT) (MB) (FT/S) (FT/S/D) 5E ST. MARYS GA 0121 81 N/A 3/ 9 FRYING PAN BUOY 0150 80 78 160/ 6/ 8 1016.0R 2/ 8 2/110/ 8 BUOY 41025 0150 78 81 230/ 4/ 6 1016.0R 3/ 8 3/ 90/ 8 CAPE LOOKOUT NC 0200 77 140/ 6/ 6 1015.8R BUOY 41002 0150 78 78 160/ 6/ 6 1017.3R 3/ 8 3/100/ 8 BUOY 41010 0120 79 81 150/ 8/ 12 1015.5 ST AUGUSTINE FL 0200 71 76 250/ 7/ 9 1016.4R $$

USA.gov is the U.S. government's official web portal to all federal, state and local government web resources and services.